Location: Bli��� Lhota
(48.7570°N, 14.0120°E)
Time: 07:51:01
(UTC+00:00)

Cosmos 1634 Rocket - Pass Details

Date: 18 September 2020
Orbit: 961 x 991 km, 82.9° (Epoch: 24 October)

Event Time Altitude Azimuth Distance (km) Brightness Sun altitude
Exits shadow 19:34:24 40° 163° (SSE) 1,382 4.4 -23.4°
Maximum altitude 19:36:39 68° 95° (E) 1,033 3.9 -23.7°
Drops below altitude 10° 19:42:48 10° 13° (NNE) 2,717 6.6 -24.6°
Sets 19:45:20 0° 12° (NNE) 3,671 7.3 -24.9°
